Preview of NWS' New Version of Forecast
This preview is not operational and should not be used for support decisions.

Regional Weather Roundup (RWR)

Issued by National Weather Service (NWS)

                            
000
ASUS44 KJAN 200610
RWRMS 

MISSISSIPPI HOURLY WEATHER ROUNDUP
NATIONAL WEATHER SERVICE JACKSON MS
100 AM CDT FRI SEP 20 2019

NOTE: "FAIR: INDICATES FEW OR NO CLOUDS BELOW 12,000 FEET WITH NO
SIGNIFICANT WEATHER AND/OR OBSTRUCTIONS TO VISIBILITY.

MSZ001>002-007>008-010>013-018>021-025>028-034>036-200700-
NORTHWEST MISSISSIPPI
  
CITY           SKY/WX    TMP DP  RH WIND       PRES   REMARKS
BATESVILLE       N/A     73  72  94 CALM      30.07S                  
CLARKSDALE       N/A     73  73 100 CALM      30.06R                  
CLEVELAND      MOCLDY    74  74 100 SE6       30.04S                  
GREENWOOD      FAIR      76  70  82 CALM      30.07R                  
6HR MIN TEMP:  75; 6HR MAX TEMP:  86;                                

GREENVILLE     FAIR      74  71  91 SE7       30.04S                  
6HR MIN TEMP:  73; 6HR MAX TEMP:  80; 6HR PCP:  0.21;                

OLIVE BRANCH   MOCLDY    75  72  88 SE6       30.06S                  
OXFORD         MOCLDY    75  70  83 SE5       30.09F                  
TUNICA           N/A     73  70  88 SE7       30.06S                  
WINONA         FAIR      73  71  95 CALM      30.09R                  
$$

MSZ003>006-009-014>017-022>024-029>033-037>039-200700-
NORTHEAST MISSISSIPPI
  
CITY           SKY/WX    TMP DP  RH WIND       PRES   REMARKS
ABERDEEN       FAIR      73  57  56 SE5       30.12R                  
COLUMBUS AFB   FAIR      73  67  81 SE6       30.10S                  
6HR MIN TEMP:  73; 6HR MAX TEMP:  80;                                

CORINTH        CLOUDY    72  70  94 CALM      30.11R                  
GOLDN TRIANGLE MOCLDY    78  67  68 SE12      30.11R                  
STARKVILLE     MOCLDY    73  70  88 CALM      30.11R                  
TUPELO         MOCLDY    79  67  66 SE10      30.10R                  
6HR MIN TEMP:  76; 6HR MAX TEMP:  82;                                

$$

MSZ040-058-200700-
CENTRAL MISSISSIPPI
  
CITY           SKY/WX    TMP DP  RH WIND       PRES   REMARKS
JACKSON INTL   MOCLDY    74  70  87 SE12      30.06R                  
6HR MIN TEMP:  72; 6HR MAX TEMP:  75; 6HR PCP:  0.06;                

JACKSON HAWKNS FAIR      75  70  84 SE6       30.06S                  
6HR MIN TEMP:  75; 6HR MAX TEMP:  80;                                

MADISON        FAIR      72  72 100 CALM      30.08S                  
MERIDIAN KEY   FAIR      75  71  87 SE5       30.10R                  
6HR MIN TEMP:  75; 6HR MAX TEMP:  82;                                

MERIDIAN NAS   FAIR      73  71  93 SE5       30.11R                  
6HR MIN TEMP:  73; 6HR MAX TEMP:  82;                                

RAYMOND        FAIR      75  73  94 SE7       30.05S                  
VICKSBURG VKS  CLEAR     75  72  88 SE5       30.03S                  
$$

MSZ059>079-200700-
SOUTH MISSISSIPPI
  
CITY           SKY/WX    TMP DP  RH WIND       PRES   REMARKS
BROOKHAVEN     FAIR      73  72  94 CALM      30.07S                  
HATTIESBURG    FAIR      72  70  93 CALM      30.08S                  
6HR MIN TEMP:  72; 6HR MAX TEMP:  76;                                

LAUREL         CLEAR     72  70  93 SE5       30.09R                  
MCCOMB         FAIR      75  72  90 E6        30.05S                  
6HR MIN TEMP:  75; 6HR MAX TEMP:  83;                                

NATCHEZ        FAIR      73  69  87 CALM      30.04R                  
6HR MIN TEMP:  73; 6HR MAX TEMP:  80;                                

PINE BELT      MOCLDY    72  71  97 CALM      30.09S                  
6HR MIN TEMP:  72; 6HR MAX TEMP:  74;                                

$$

MSZ080>082-200700-
COASTAL MISSISSIPPI
  
CITY           SKY/WX    TMP DP  RH WIND       PRES   REMARKS
BILOXI         CLOUDY    82  72  70 SE10      30.04S                  
6HR MIN TEMP:  77; 6HR MAX TEMP:  82; 6HR PCP: TRACE;                

PASCAGOULA     FAIR      76  72  87 E3        30.06R                  
6HR MIN TEMP:  74; 6HR MAX TEMP:  77; 6HR PCP:  0.13;                

GULFPORT       FAIR      83  70  64 SE14      30.04S                  
6HR MIN TEMP:  78; 6HR MAX TEMP:  83;                                

$$

LAZ007>009-015>016-023>026-200700-
NORTHEAST LOUISIANA
  
CITY           SKY/WX    TMP DP  RH WIND       PRES   REMARKS
BASTROP        FAIR      72  72  98 CALM      30.02F                  
TALLULAH/VBURG FAIR      77  68  73 S9        30.03S                  
6HR MIN TEMP:  76; 6HR MAX TEMP:  89;                                

VIDALIA        FAIR     N/A N/A N/A CALM      30.02S                  
$$